AZG790 LCLK-UBBB

Flight info

Callsign AZG790
Flight time 2h 2m
Altitude 34000
Route RUDER M13 BAPAX DCT GAZ/N0492F350 UW716 DYB UW73 BAYIR UM688 ULTED UT36 DERIL UG8 ALRAM G208 UMH A422 PARSU N59 INSAN
Aircraft B77L/H-SDE1E2E3FGHIJ2J3J4J5M1RWXY/LB1D1

Departure

Time 2025-09-05 10:29
Airport Larnaca International Airport (LCLK)

Arrival

Time 2025-09-05 12:32
Airport Heydar Aliyev International Airport (UBBB)
Time Latitude Longitude Altitude Speed Heading
2025-09-05 09:37 34.88333 33.62848 20 ft 0 kts 225°
2025-09-05 10:22 34.88332 33.62845 20 ft 2 kts 226°
2025-09-05 10:23 34.88216 33.62872 20 ft 8 kts 132°
2025-09-05 10:23 34.88161 33.62969 25 ft 8 kts 85°
2025-09-05 10:24 34.88409 33.63293 22 ft 9 kts 45°
2025-09-05 10:24 34.88443 33.63353 26 ft 9 kts 79°
2025-09-05 10:25 34.88373 33.63471 23 ft 9 kts 134°
2025-09-05 10:25 34.88252 33.63464 22 ft 11 kts 223°
2025-09-05 10:26 34.88228 33.63434 22 ft 0 kts 225°
2025-09-05 10:27 34.88059 33.63228 24 ft 70 kts 225°
2025-09-05 10:28 34.85902 33.60562 750 ft 177 kts 223°
2025-09-05 10:28 34.84156 33.58448 1980 ft 184 kts 223°
2025-09-05 10:29 34.82295 33.56277 3105 ft 185 kts 208°
2025-09-05 10:29 34.81025 33.55955 3364 ft 199 kts 167°
2025-09-05 10:29 34.79126 33.58579 3687 ft 246 kts 96°
2025-09-05 10:30 34.79803 33.62154 4222 ft 275 kts 69°
2025-09-05 10:30 34.81534 33.67359 5748 ft 289 kts 68°
2025-09-05 10:31 34.82769 33.71172 6963 ft 293 kts 68°
2025-09-05 10:32 34.84972 33.78250 9000 ft 303 kts 69°
2025-09-05 10:32 34.86455 33.83117 10261 ft 313 kts 69°
2025-09-05 10:32 34.87236 33.85692 10471 ft 336 kts 69°
2025-09-05 10:33 34.89890 33.94480 11201 ft 395 kts 69°
2025-09-05 10:33 34.90789 33.97690 11789 ft 404 kts 72°
2025-09-05 10:34 34.92633 34.04252 13272 ft 413 kts 69°
2025-09-05 10:34 34.95532 34.10207 14313 ft 421 kts 38°
2025-09-05 10:35 35.00825 34.13020 15622 ft 417 kts
2025-09-05 10:35 35.06675 34.13418 16728 ft 426 kts 359°
2025-09-05 10:36 35.12646 34.13690 18056 ft 432 kts 359°
2025-09-05 10:36 35.18715 34.14028 19128 ft 441 kts 359°
2025-09-05 10:37 35.24898 34.14420 20173 ft 448 kts 359°
2025-09-05 10:37 35.31137 34.14830 21182 ft 456 kts 359°
2025-09-05 10:38 35.37529 34.15250 22179 ft 463 kts 359°
2025-09-05 10:38 35.44023 34.15676 23135 ft 471 kts 359°
2025-09-05 10:39 35.50624 34.16109 23963 ft 478 kts 359°
2025-09-05 10:40 35.70438 34.20431 25963 ft 514 kts 40°
2025-09-05 10:42 35.83927 34.52034 28833 ft 536 kts 65°
2025-09-05 10:44 35.96989 34.85258 32096 ft 538 kts 64°
2025-09-05 10:46 36.09942 35.18598 33859 ft 540 kts 64°
2025-09-05 10:49 36.24461 35.56385 33887 ft 553 kts 64°
2025-09-05 10:50 36.35988 35.86710 33866 ft 557 kts 64°
2025-09-05 10:53 36.50640 36.25669 33821 ft 551 kts 65°
2025-09-05 10:55 36.63501 36.60289 33874 ft 555 kts 65°
2025-09-05 10:57 36.76409 36.95422 33890 ft 558 kts 65°
2025-09-05 10:59 36.89150 37.30497 34082 ft 558 kts 65°
2025-09-05 11:01 37.01819 37.65856 34936 ft 557 kts 66°
2025-09-05 11:03 37.14450 38.01085 34952 ft 556 kts 65°
2025-09-05 11:05 37.26990 38.36542 34959 ft 557 kts 66°
2025-09-05 11:07 37.39441 38.72171 34959 ft 557 kts 66°
2025-09-05 11:09 37.51510 39.07989 34974 ft 558 kts 68°
2025-09-05 11:11 37.62980 39.44306 34972 ft 560 kts 66°
2025-09-05 11:13 37.74767 39.80798 34952 ft 562 kts 68°
2025-09-05 11:15 37.86255 40.17504 34907 ft 562 kts 69°
2025-09-05 11:17 37.97423 40.54433 34889 ft 561 kts 69°
2025-09-05 11:19 38.08498 40.91480 34904 ft 563 kts 69°
2025-09-05 11:21 38.19007 41.27109 34929 ft 563 kts 69°
2025-09-05 11:22 38.28550 41.59869 34962 ft 566 kts 69°
2025-09-05 11:25 38.32054 42.03176 35021 ft 557 kts 105°
2025-09-05 11:26 38.26786 42.36991 35042 ft 559 kts 104°
2025-09-05 11:29 38.19949 42.80862 35099 ft 565 kts 104°
2025-09-05 11:31 38.13802 43.19741 35127 ft 559 kts 105°
2025-09-05 11:33 38.03985 43.56634 35161 ft 554 kts 120°
2025-09-05 11:34 37.92784 43.87955 35168 ft 557 kts 120°
2025-09-05 11:37 37.78950 44.26263 35153 ft 525 kts 120°
2025-09-05 11:38 37.71473 44.57076 35113 ft 537 kts 101°
2025-09-05 11:41 37.69114 44.99729 35043 ft 543 kts 95°
2025-09-05 11:42 37.75689 45.31684 35029 ft 544 kts 68°
2025-09-05 11:45 37.88131 45.73196 35038 ft 578 kts 69°
2025-09-05 11:46 38.01835 46.03655 35082 ft 570 kts 43°
2025-09-05 11:49 38.26878 46.35777 35082 ft 567 kts 38°
2025-09-05 11:50 38.46962 46.59918 35062 ft 567 kts 39°
2025-09-05 11:53 38.72639 46.91171 35051 ft 567 kts 39°
2025-09-05 11:54 38.92556 47.15471 35013 ft 568 kts 39°
2025-09-05 11:57 39.18256 47.47152 34946 ft 569 kts 39°
2025-09-05 11:58 39.37631 47.71277 32586 ft 530 kts 39°
2025-09-05 12:01 39.59716 48.00569 28209 ft 481 kts 54°
2025-09-05 12:02 39.70479 48.26720 25157 ft 459 kts 61°
2025-09-05 12:03 39.73372 48.34056 24299 ft 454 kts 61°
2025-09-05 12:04 39.77677 48.44937 22953 ft 447 kts 61°
2025-09-05 12:04 39.80493 48.52076 22061 ft 440 kts 61°
2025-09-05 12:05 39.83259 48.59105 21247 ft 433 kts 61°
2025-09-05 12:05 39.84626 48.62584 20828 ft 430 kts 61°
2025-09-05 12:05 39.87325 48.69465 20005 ft 424 kts 61°
2025-09-05 12:06 39.89973 48.76235 19196 ft 420 kts 61°
2025-09-05 12:06 39.92537 48.82808 18394 ft 398 kts 61°
2025-09-05 12:07 39.95045 48.89243 17509 ft 397 kts 61°
2025-09-05 12:08 39.98770 48.98830 16274 ft 393 kts 62°
2025-09-05 12:08 40.00786 49.04030 15611 ft 391 kts 62°
2025-09-05 12:09 40.03227 49.10341 14818 ft 389 kts 62°
2025-09-05 12:09 40.04443 49.13485 14412 ft 388 kts 62°
2025-09-05 12:09 40.06820 49.19642 13568 ft 368 kts 62°
2025-09-05 12:10 40.09123 49.25615 12761 ft 368 kts 62°
2025-09-05 12:10 40.11348 49.31578 11947 ft 358 kts 70°
2025-09-05 12:11 40.11910 49.37918 11259 ft 352 kts 86°
2025-09-05 12:12 40.12324 49.47258 10174 ft 321 kts 86°
2025-09-05 12:12 40.12605 49.52868 9542 ft 305 kts 85°
2025-09-05 12:12 40.12746 49.55637 9215 ft 305 kts 85°
2025-09-05 12:13 40.13024 49.61100 8574 ft 297 kts 85°
2025-09-05 12:13 40.13293 49.66409 7962 ft 280 kts 85°
2025-09-05 12:14 40.13534 49.71230 7412 ft 260 kts 85°
2025-09-05 12:14 40.13083 49.75640 7044 ft 239 kts 125°
2025-09-05 12:15 40.10755 49.78784 7090 ft 246 kts 137°
2025-09-05 12:16 40.07025 49.83471 6993 ft 243 kts 136°
2025-09-05 12:16 40.05177 49.87052 7008 ft 242 kts 114°
2025-09-05 12:16 40.04471 49.89067 7011 ft 245 kts 115°
2025-09-05 12:17 40.03007 49.93105 6991 ft 247 kts 115°
2025-09-05 12:17 40.01615 49.97166 6992 ft 242 kts 102°
2025-09-05 12:18 40.01255 50.01457 7006 ft 244 kts 94°
2025-09-05 12:18 40.00939 50.05902 7012 ft 247 kts 95°
2025-09-05 12:19 40.00643 50.10293 6982 ft 239 kts 84°
2025-09-05 12:20 40.01831 50.16709 7014 ft 247 kts 74°
2025-09-05 12:20 40.02255 50.18865 6990 ft 244 kts 75°
2025-09-05 12:20 40.03085 50.23093 6990 ft 237 kts 69°
2025-09-05 12:21 40.04805 50.26760 7009 ft 242 kts 53°
2025-09-05 12:21 40.06717 50.30371 6998 ft 241 kts 53°
2025-09-05 12:22 40.09504 50.32133 6996 ft 232 kts 353°
2025-09-05 12:22 40.12315 50.30101 6494 ft 235 kts 315°
2025-09-05 12:23 40.14600 50.27128 5960 ft 228 kts 315°
2025-09-05 12:24 40.17932 50.22791 5293 ft 226 kts 316°
2025-09-05 12:24 40.19057 50.21335 5074 ft 228 kts 316°
2025-09-05 12:24 40.21323 50.18404 4605 ft 229 kts 316°
2025-09-05 12:25 40.23593 50.15473 4128 ft 229 kts 316°
2025-09-05 12:25 40.25864 50.12541 3686 ft 230 kts 316°
2025-09-05 12:26 40.28128 50.09612 3234 ft 224 kts 317°
2025-09-05 12:26 40.30223 50.07129 2718 ft 183 kts 341°
2025-09-05 12:27 40.32570 50.06675 2435 ft 167 kts 356°
2025-09-05 12:28 40.35915 50.06472 1892 ft 158 kts
2025-09-05 12:28 40.37029 50.06454 1674 ft 160 kts
2025-09-05 12:28 40.39221 50.06422 1253 ft 156 kts
2025-09-05 12:29 40.41412 50.06387 869 ft 157 kts
2025-09-05 12:29 40.43530 50.06336 422 ft 151 kts
2025-09-05 12:30 40.45708 50.06321 63 ft 155 kts
2025-09-05 12:30 40.47504 50.06296 15 ft 90 kts 359°
2025-09-05 12:31 40.48188 50.06288 18 ft 27 kts 359°
2025-09-05 12:31 40.48473 50.06259 16 ft 15 kts 324°
2025-09-05 12:32 40.48278 50.06071 19 ft 15 kts 180°
2025-09-05 12:32 40.48169 50.06069 21 ft 15 kts 181°
2025-09-05 12:33 40.47954 50.06076 19 ft 15 kts 180°
2025-09-05 12:33 40.47690 50.06080 19 ft 22 kts 180°
2025-09-05 12:34 40.47387 50.06081 19 ft 22 kts 175°
2025-09-05 12:34 40.47085 50.06088 19 ft 22 kts 180°
2025-09-05 12:35 40.46781 50.06093 19 ft 22 kts 179°
2025-09-05 12:36 40.46578 50.06096 19 ft 8 kts 180°
2025-09-05 12:36 40.46478 50.06097 19 ft 19 kts 179°
2025-09-05 12:36 40.46214 50.06101 19 ft 17 kts 179°
2025-09-05 12:37 40.46140 50.05987 19 ft 10 kts 304°
2025-09-05 12:37 40.46197 50.05883 19 ft 3 kts 269°